Saint Bonnet de Bellac- Haute Vienne - France
Donnes mto: samedi, 14/01/2012
Date Horaire Temp. E. Hum. E. P.atmo. Pluie Vent Direction Direction Ensoleilleme Solaire P. de rose Temp au vent Rafales
14/01/2012 00:00 2,7 C 88 % 1025,7 hPa 0,0 mm 2,2 km/h (1 Bft) NE 45 0 min 0 W/m 0,9 C 2,7 C 3,6 km/h (1 Bft)
14/01/2012 00:10 2,5 C 89 % 1025,7 hPa 0,0 mm 2,2 km/h (1 Bft) NE 45 0 min 0 W/m 0,9 C 2,5 C 3,2 km/h (1 Bft)
14/01/2012 00:20 2,3 C 89 % 1025,6 hPa 0,0 mm 2,9 km/h (1 Bft) NE 45 0 min 0 W/m 0,7 C 2,3 C 4,0 km/h (1 Bft)
14/01/2012 00:30 2,2 C 89 % 1025,5 hPa 0,0 mm 2,9 km/h (1 Bft) NE 45 0 min 0 W/m 0,6 C 2,2 C 4,3 km/h (1 Bft)
14/01/2012 00:40 2,1 C 89 % 1025,4 hPa 0,0 mm 1,8 km/h (1 Bft) NE 45 0 min 0 W/m 0,5 C 2,1 C 4,0 km/h (1 Bft)
14/01/2012 00:50 1,9 C 89 % 1025,1 hPa 0,0 mm 2,2 km/h (1 Bft) NE 45 0 min 0 W/m 0,3 C 1,9 C 4,3 km/h (1 Bft)
14/01/2012 01:00 1,8 C 89 % 1025,2 hPa 0,0 mm 4,0 km/h (1 Bft) NE 45 0 min 0 W/m 0,2 C 1,8 C 6,5 km/h (2 Bft)
14/01/2012 01:10 1,8 C 90 % 1025,0 hPa 0,0 mm 4,0 km/h (1 Bft) NE 45 0 min 0 W/m 0,3 C 1,8 C 6,8 km/h (2 Bft)
14/01/2012 01:20 1,6 C 90 % 1024,9 hPa 0,0 mm 2,2 km/h (1 Bft) N-NE 22 0 min 0 W/m 0,1 C 1,6 C 4,0 km/h (1 Bft)
14/01/2012 01:30 1,5 C 90 % 1024,8 hPa 0,0 mm 2,5 km/h (1 Bft) N-NE 22 0 min 0 W/m 0,0 C 1,5 C 4,3 km/h (1 Bft)
14/01/2012 01:40 1,4 C 91 % 1024,8 hPa 0,0 mm 1,4 km/h (1 Bft) N-NE 22 0 min 0 W/m 0,1 C 1,4 C 2,9 km/h (1 Bft)
14/01/2012 01:50 1,2 C 91 % 1024,7 hPa 0,0 mm 1,4 km/h (1 Bft) NE 45 0 min 0 W/m -0,1 C 1,2 C 5,4 km/h (2 Bft)
14/01/2012 02:02 0,9 C 91 % 1024,5 hPa 0,0 mm 0,7 km/h (0 Bft) NE 45 0 min 0 W/m -0,4 C 0,9 C 0,7 km/h (0 Bft)
14/01/2012 02:10 0,8 C 91 % 1024,6 hPa 0,0 mm 0,0 km/h (0 Bft) N-NE 22 0 min 0 W/m -0,5 C 0,8 C 0,0 km/h (0 Bft)
14/01/2012 02:20 0,6 C 90 % 1024,6 hPa 0,0 mm 1,4 km/h (1 Bft) N-NE 22 0 min 0 W/m -0,8 C 0,6 C 2,9 km/h (1 Bft)
14/01/2012 02:30 0,5 C 91 % 1024,6 hPa 0,0 mm 1,4 km/h (1 Bft) NE 45 0 min 0 W/m -0,8 C 0,5 C 1,4 km/h (1 Bft)
14/01/2012 02:40 0,4 C 91 % 1024,5 hPa 0,0 mm 2,2 km/h (1 Bft) N-NE 22 0 min 0 W/m -0,9 C 0,4 C 4,3 km/h (1 Bft)
14/01/2012 02:50 0,3 C 91 % 1024,6 hPa 0,0 mm 0,0 km/h (0 Bft) NE 45 0 min 0 W/m -1,0 C 0,3 C 0,0 km/h (0 Bft)
14/01/2012 03:00 0,3 C 91 % 1024,6 hPa 0,0 mm 0,0 km/h (0 Bft) NE 45 0 min 0 W/m -1,0 C 0,3 C 0,0 km/h (0 Bft)
14/01/2012 03:10 0,1 C 91 % 1024,6 hPa 0,0 mm 0,0 km/h (0 Bft) NE 45 0 min 0 W/m -1,2 C 0,1 C 0,0 km/h (0 Bft)
14/01/2012 03:20 -0,1 C 91 % 1024,5 hPa 0,0 mm 0,4 km/h (0 Bft) NE 45 0 min 0 W/m -1,4 C -0,1 C 0,4 km/h (0 Bft)
14/01/2012 03:30 -0,2 C 92 % 1024,4 hPa 0,0 mm 0,4 km/h (0 Bft) E-NE 67 0 min 0 W/m -1,3 C -0,2 C 3,2 km/h (1 Bft)
14/01/2012 03:40 -0,3 C 92 % 1024,3 hPa 0,0 mm 0,0 km/h (0 Bft) NE 45 0 min 0 W/m -1,4 C -0,3 C 0,0 km/h (0 Bft)
14/01/2012 03:50 -0,5 C 92 % 1024,2 hPa 0,0 mm 0,0 km/h (0 Bft) NE 45 0 min 0 W/m -1,6 C -0,5 C 0,0 km/h (0 Bft)
14/01/2012 04:00 -0,6 C 92 % 1024,2 hPa 0,0 mm 0,0 km/h (0 Bft) NE 45 0 min 0 W/m -1,7 C -0,6 C 0,0 km/h (0 Bft)
14/01/2012 04:10 -0,7 C 91 % 1024,1 hPa 0,0 mm 0,0 km/h (0 Bft) NE 45 0 min 0 W/m -2,0 C -0,7 C 0,0 km/h (0 Bft)
14/01/2012 04:20 -0,7 C 91 % 1024,0 hPa 0,0 mm 0,0 km/h (0 Bft) NE 45 0 min 0 W/m -2,0 C -0,7 C 0,0 km/h (0 Bft)
14/01/2012 04:30 -0,8 C 91 % 1023,8 hPa 0,0 mm 0,4 km/h (0 Bft) NE 45 0 min 0 W/m -2,1 C -0,8 C 0,4 km/h (0 Bft)
14/01/2012 04:40 -0,9 C 91 % 1023,8 hPa 0,0 mm 0,7 km/h (0 Bft) NE 45 0 min 0 W/m -2,2 C -0,9 C 4,0 km/h (1 Bft)
14/01/2012 04:50 -1,1 C 92 % 1023,8 hPa 0,0 mm 0,0 km/h (0 Bft) NE 45 0 min 0 W/m -2,2 C -1,1 C 0,0 km/h (0 Bft)
14/01/2012 05:00 -1,1 C 92 % 1023,8 hPa 0,0 mm 0,0 km/h (0 Bft) NE 45 0 min 0 W/m -2,2 C -1,1 C 1,4 km/h (1 Bft)
14/01/2012 05:10 -1,2 C 92 % 1023,7 hPa 0,0 mm 0,0 km/h (0 Bft) NE 45 0 min 0 W/m -2,3 C -1,2 C 3,6 km/h (1 Bft)
14/01/2012 05:20 -1,2 C 92 % 1023,5 hPa 0,0 mm 1,1 km/h (1 Bft) N-NE 22 0 min 0 W/m -2,3 C -1,2 C 6,1 km/h (2 Bft)
14/01/2012 05:30 -1,1 C 92 % 1023,5 hPa 0,0 mm 1,8 km/h (1 Bft) N-NE 22 0 min 0 W/m -2,2 C -1,1 C 4,0 km/h (1 Bft)
14/01/2012 05:40 -0,9 C 92 % 1023,3 hPa 0,0 mm 3,6 km/h (1 Bft) N-NE 22 0 min 0 W/m -2,0 C -0,9 C 4,0 km/h (1 Bft)
14/01/2012 05:50 -0,7 C 92 % 1023,3 hPa 0,0 mm 1,8 km/h (1 Bft) E-NE 67 0 min 0 W/m -1,8 C -0,7 C 3,6 km/h (1 Bft)
14/01/2012 06:00 -0,7 C 92 % 1023,4 hPa 0,0 mm 1,8 km/h (1 Bft) NE 45 0 min 0 W/m -1,8 C -0,7 C 4,3 km/h (1 Bft)
14/01/2012 06:10 -0,8 C 93 % 1023,2 hPa 0,0 mm 4,3 km/h (1 Bft) NE 45 0 min 0 W/m -1,8 C -0,8 C 4,3 km/h (1 Bft)
14/01/2012 06:20 -0,7 C 93 % 1023,2 hPa 0,0 mm 3,6 km/h (1 Bft) NE 45 0 min 0 W/m -1,7 C -0,7 C 3,6 km/h (1 Bft)
14/01/2012 06:30 -0,7 C 93 % 1023,2 hPa 0,0 mm 4,3 km/h (1 Bft) N-NE 22 0 min 0 W/m -1,7 C -0,7 C 8,3 km/h (2 Bft)
14/01/2012 06:40 -0,7 C 93 % 1023,2 hPa 0,0 mm 5,8 km/h (2 Bft) N-NE 22 0 min 0 W/m -1,7 C -2,7 C 13,0 km/h (3 Bft)
14/01/2012 06:50 -0,7 C 93 % 1023,2 hPa 0,0 mm 4,0 km/h (1 Bft) NE 45 0 min 0 W/m -1,7 C -0,7 C 9,4 km/h (2 Bft)
14/01/2012 07:00 -0,7 C 93 % 1023,1 hPa 0,0 mm 2,9 km/h (1 Bft) NE 45 0 min 0 W/m -1,7 C -0,7 C 6,1 km/h (2 Bft)
14/01/2012 07:10 -0,7 C 93 % 1023,0 hPa 0,0 mm 2,5 km/h (1 Bft) N-NE 22 0 min 0 W/m -1,7 C -0,7 C 4,0 km/h (1 Bft)
14/01/2012 07:20 -0,6 C 93 % 1022,7 hPa 0,0 mm 5,8 km/h (2 Bft) NE 45 0 min 0 W/m -1,6 C -2,6 C 9,7 km/h (2 Bft)
14/01/2012 07:30 -0,5 C 93 % 1022,7 hPa 0,0 mm 5,4 km/h (2 Bft) NE 45 0 min 0 W/m -1,5 C -2,3 C 8,3 km/h (2 Bft)
14/01/2012 07:40 -0,5 C 93 % 1022,7 hPa 0,0 mm 3,2 km/h (1 Bft) NE 45 0 min 0 W/m -1,5 C -0,5 C 6,1 km/h (2 Bft)
14/01/2012 07:50 -0,5 C 93 % 1022,8 hPa 0,0 mm 4,7 km/h (1 Bft) N-NE 22 0 min 0 W/m -1,5 C -2,0 C 9,0 km/h (2 Bft)
14/01/2012 08:00 -0,4 C 93 % 1022,8 hPa 0,0 mm 3,6 km/h (1 Bft) NE 45 0 min 0 W/m -1,4 C -0,4 C 8,6 km/h (2 Bft)
14/01/2012 08:10 -0,4 C 93 % 1022,9 hPa 0,0 mm 3,2 km/h (1 Bft) NE 45 0 min 0 W/m -1,4 C -0,4 C 4,3 km/h (1 Bft)
14/01/2012 08:20 -0,4 C 93 % 1022,8 hPa 0,0 mm 4,7 km/h (1 Bft) N 360 0 min 0 W/m -1,4 C -1,9 C 6,5 km/h (2 Bft)
14/01/2012 08:30 -0,5 C 93 % 1022,8 hPa 0,0 mm 6,1 km/h (2 Bft) N-NE 22 0 min 0 W/m -1,5 C -2,6 C 11,2 km/h (2 Bft)
14/01/2012 08:40 -0,6 C 93 % 1022,8 hPa 0,0 mm 4,0 km/h (1 Bft) N-NE 22 0 min 0 W/m -1,6 C -0,6 C 7,2 km/h (2 Bft)
14/01/2012 08:50 -0,7 C 93 % 1022,9 hPa 0,0 mm 4,3 km/h (1 Bft) N-NE 22 2 min 0 W/m -1,7 C -0,7 C 8,3 km/h (2 Bft)
14/01/2012 09:00 -0,8 C 93 % 1022,8 hPa 0,0 mm 4,3 km/h (1 Bft) NE 45 2 min 0 W/m -1,8 C -0,8 C 6,5 km/h (2 Bft)
14/01/2012 09:10 -0,8 C 93 % 1022,9 hPa 0,0 mm 3,6 km/h (1 Bft) N-NE 22 2 min 0 W/m -1,8 C -0,8 C 3,6 km/h (1 Bft)
14/01/2012 09:20 -0,5 C 94 % 1023,0 hPa 0,0 mm 4,0 km/h (1 Bft) N-NE 22 2 min 0 W/m -1,3 C -0,5 C 6,8 km/h (2 Bft)
14/01/2012 09:30 -0,2 C 94 % 1023,0 hPa 0,0 mm 5,0 km/h (1 Bft) N-NE 22 2 min 0 W/m -1,0 C -1,8 C 7,9 km/h (2 Bft)
14/01/2012 09:40 0,3 C 95 % 1023,0 hPa 0,0 mm 3,2 km/h (1 Bft) E-NE 67 2 min 0 W/m -0,4 C 0,3 C 4,0 km/h (1 Bft)
14/01/2012 09:50 0,6 C 95 % 1022,9 hPa 0,0 mm 4,7 km/h (1 Bft) NE 45 2 min 0 W/m -0,1 C -0,8 C 7,6 km/h (2 Bft)
14/01/2012 10:00 0,9 C 94 % 1022,9 hPa 0,0 mm 5,0 km/h (1 Bft) N-NE 22 2 min 0 W/m 0,0 C -0,6 C 8,6 km/h (2 Bft)
14/01/2012 10:10 1,4 C 93 % 1022,9 hPa 0,0 mm 4,0 km/h (1 Bft) NE 45 2 min 0 W/m 0,4 C 1,4 C 4,0 km/h (1 Bft)
14/01/2012 10:20 1,8 C 92 % 1022,8 hPa 0,0 mm 2,9 km/h (1 Bft) NE 45 2 min 0 W/m 0,6 C 1,8 C 4,0 km/h (1 Bft)
14/01/2012 10:30 2,2 C 91 % 1022,7 hPa 0,0 mm 5,8 km/h (2 Bft) E-NE 67 2 min 0 W/m 0,9 C 0,6 C 9,4 km/h (2 Bft)
14/01/2012 10:40 2,6 C 90 % 1022,7 hPa 0,0 mm 7,2 km/h (2 Bft) N-NE 22 2 min 0 W/m 1,1 C 0,6 C 8,3 km/h (2 Bft)
14/01/2012 10:50 2,9 C 88 % 1022,7 hPa 0,0 mm 6,5 km/h (2 Bft) N-NE 22 2 min 0 W/m 1,1 C 1,1 C 9,0 km/h (2 Bft)
14/01/2012 11:00 3,3 C 88 % 1022,7 hPa 0,0 mm 7,6 km/h (2 Bft) N-NE 22 2 min 0 W/m 1,5 C 1,3 C 8,6 km/h (2 Bft)
14/01/2012 11:10 3,6 C 86 % 1022,8 hPa 0,0 mm 5,4 km/h (2 Bft) NE 45 2 min 0 W/m 1,5 C 2,3 C 9,4 km/h (2 Bft)
14/01/2012 11:20 3,9 C 84 % 1022,7 hPa 0,0 mm 7,6 km/h (2 Bft) NE 45 2 min 0 W/m 1,4 C 2,0 C 9,7 km/h (2 Bft)
14/01/2012 11:30 4,2 C 83 % 1022,8 hPa 0,0 mm 5,0 km/h (1 Bft) E-NE 67 2 min 0 W/m 1,6 C 3,2 C 7,6 km/h (2 Bft)
14/01/2012 11:40 4,6 C 82 % 1022,6 hPa 0,0 mm 5,8 km/h (2 Bft) NE 45 2 min 0 W/m 1,8 C 3,3 C 7,9 km/h (2 Bft)
14/01/2012 11:50 4,9 C 80 % 1022,5 hPa 0,0 mm 5,0 km/h (1 Bft) NE 45 2 min 0 W/m 1,7 C 4,0 C 6,1 km/h (2 Bft)
14/01/2012 12:00 5,3 C 79 % 1022,6 hPa 0,0 mm 9,0 km/h (2 Bft) N-NE 22 2 min 0 W/m 2,0 C 3,2 C 16,2 km/h (3 Bft)
14/01/2012 12:10 5,6 C 77 % 1022,6 hPa 0,0 mm 6,8 km/h (2 Bft) E-NE 67 2 min 0 W/m 1,9 C 4,2 C 10,8 km/h (2 Bft)
14/01/2012 12:20 6,1 C 76 % 1022,4 hPa 0,0 mm 5,8 km/h (2 Bft) NE 45 2 min 0 W/m 2,2 C 5,1 C 13,3 km/h (3 Bft)
14/01/2012 12:30 6,6 C 75 % 1022,6 hPa 0,0 mm 10,4 km/h (2 Bft) NE 45 2 min 0 W/m 2,5 C 4,5 C 14,8 km/h (3 Bft)
14/01/2012 12:40 6,9 C 73 % 1022,3 hPa 0,0 mm 8,3 km/h (2 Bft) E-NE 67 2 min 0 W/m 2,4 C 5,3 C 17,6 km/h (3 Bft)
14/01/2012 12:50 6,9 C 69 % 1022,5 hPa 0,0 mm 9,7 km/h (2 Bft) E-SE 112 2 min 0 W/m 1,6 C 5,0 C 13,7 km/h (3 Bft)
14/01/2012 13:00 7,3 C 69 % 1022,3 hPa 0,0 mm 13,3 km/h (3 Bft) N-NE 22 2 min 0 W/m 2,0 C 4,8 C 17,3 km/h (3 Bft)
14/01/2012 13:10 7,4 C 67 % 1022,1 hPa 0,0 mm 9,0 km/h (2 Bft) NE 45 2 min 0 W/m 1,7 C 5,7 C 17,3 km/h (3 Bft)
14/01/2012 13:20 7,4 C 66 % 1021,9 hPa 0,0 mm 6,8 km/h (2 Bft) E-NE 67 2 min 0 W/m 1,5 C 6,3 C 8,3 km/h (2 Bft)
14/01/2012 13:30 7,4 C 64 % 1021,8 hPa 0,0 mm 8,3 km/h (2 Bft) NE 45 2 min 0 W/m 1,0 C 5,9 C 9,4 km/h (2 Bft)
14/01/2012 13:40 7,4 C 64 % 1021,4 hPa 0,0 mm 7,2 km/h (2 Bft) E-NE 67 2 min 0 W/m 1,0 C 6,1 C 11,5 km/h (2 Bft)
14/01/2012 13:50 7,4 C 63 % 1021,3 hPa 0,0 mm 8,3 km/h (2 Bft) E-NE 67 2 min 0 W/m 0,8 C 5,9 C 11,2 km/h (2 Bft)
14/01/2012 14:00 7,4 C 64 % 1021,3 hPa 0,0 mm 0,7 km/h (0 Bft) E-NE 67 2 min 0 W/m 1,0 C 7,4 C 3,6 km/h (1 Bft)
14/01/2012 14:10 7,6 C 62 % 1021,2 hPa 0,0 mm 9,7 km/h (2 Bft) E-NE 67 2 min 0 W/m 0,8 C 5,8 C 13,0 km/h (3 Bft)
14/01/2012 14:20 7,6 C 63 % 1021,1 hPa 0,0 mm 6,8 km/h (2 Bft) NE 45 2 min 0 W/m 1,0 C 6,5 C 10,1 km/h (2 Bft)
14/01/2012 14:30 7,8 C 62 % 1020,8 hPa 0,0 mm 3,6 km/h (1 Bft) E 90 2 min 0 W/m 1,0 C 7,8 C 6,8 km/h (2 Bft)
14/01/2012 14:40 7,9 C 61 % 1020,6 hPa 0,0 mm 9,0 km/h (2 Bft) N-NE 22 2 min 0 W/m 0,9 C 6,3 C 9,4 km/h (2 Bft)
14/01/2012 14:50 7,6 C 60 % 1020,5 hPa 0,0 mm 4,3 km/h (1 Bft) E-NE 67 2 min 0 W/m 0,3 C 7,6 C 8,3 km/h (2 Bft)
14/01/2012 15:00 7,7 C 61 % 1020,2 hPa 0,0 mm 7,6 km/h (2 Bft) E-NE 67 2 min 0 W/m 0,7 C 6,4 C 9,7 km/h (2 Bft)
14/01/2012 15:10 7,6 C 60 % 1020,1 hPa 0,0 mm 10,4 km/h (2 Bft) NE 45 2 min 0 W/m 0,3 C 5,7 C 14,8 km/h (3 Bft)
14/01/2012 15:20 7,4 C 59 % 1020,2 hPa 0,0 mm 6,5 km/h (2 Bft) E-NE 67 2 min 0 W/m -0,1 C 6,3 C 13,3 km/h (3 Bft)
14/01/2012 15:30 7,1 C 61 % 1020,2 hPa 0,0 mm 4,7 km/h (1 Bft) N-NE 22 2 min 0 W/m 0,1 C 6,6 C 7,9 km/h (2 Bft)
14/01/2012 15:40 6,9 C 62 % 1020,1 hPa 0,0 mm 4,7 km/h (1 Bft) N-NE 22 2 min 0 W/m 0,1 C 6,3 C 11,2 km/h (2 Bft)
14/01/2012 15:50 6,8 C 63 % 1020,1 hPa 0,0 mm 5,4 km/h (2 Bft) NE 45 2 min 0 W/m 0,3 C 6,0 C 7,2 km/h (2 Bft)
14/01/2012 16:00 6,6 C 63 % 1020,0 hPa 0,0 mm 8,6 km/h (2 Bft) N-NE 22 2 min 0 W/m 0,1 C 4,9 C 11,5 km/h (2 Bft)
14/01/2012 16:10 6,3 C 64 % 1019,9 hPa 0,0 mm 7,2 km/h (2 Bft) N-NE 22 2 min 0 W/m 0,0 C 4,9 C 9,7 km/h (2 Bft)
14/01/2012 16:20 6,1 C 65 % 1020,1 hPa 0,0 mm 5,0 km/h (1 Bft) N-NE 22 2 min 0 W/m 0,0 C 5,3 C 8,6 km/h (2 Bft)
14/01/2012 16:30 5,9 C 65 % 1020,1 hPa 0,0 mm 5,4 km/h (2 Bft) NE 45 2 min 0 W/m -0,2 C 5,0 C 8,6 km/h (2 Bft)
14/01/2012 16:40 5,7 C 65 % 1019,9 hPa 0,0 mm 6,5 km/h (2 Bft) N-NO 337 2 min 0 W/m -0,4 C 4,4 C 11,9 km/h (2 Bft)
14/01/2012 16:50 5,4 C 65 % 1019,8 hPa 0,0 mm 7,6 km/h (2 Bft) N 360 2 min 0 W/m -0,6 C 3,7 C 10,1 km/h (2 Bft)
14/01/2012 17:00 5,2 C 66 % 1019,9 hPa 0,0 mm 5,4 km/h (2 Bft) E-NE 67 2 min 0 W/m -0,6 C 4,2 C 7,9 km/h (2 Bft)
14/01/2012 17:10 4,9 C 67 % 1019,9 hPa 0,0 mm 3,2 km/h (1 Bft) N-NE 22 2 min 0 W/m -0,7 C 4,9 C 3,2 km/h (1 Bft)
14/01/2012 17:20 4,5 C 67 % 1019,7 hPa 0,0 mm 6,5 km/h (2 Bft) NE 45 2 min 0 W/m -1,1 C 3,0 C 8,6 km/h (2 Bft)
14/01/2012 17:30 4,1 C 68 % 1019,7 hPa 0,0 mm 8,3 km/h (2 Bft) N-NE 22 0 min 0 W/m -1,3 C 2,0 C 14,0 km/h (3 Bft)
14/01/2012 17:40 3,8 C 68 % 1019,8 hPa 0,0 mm 5,4 km/h (2 Bft) E-NE 67 0 min 0 W/m -1,6 C 2,6 C 10,1 km/h (2 Bft)
14/01/2012 17:50 3,4 C 69 % 1019,8 hPa 0,0 mm 5,0 km/h (1 Bft) NE 45 0 min 0 W/m -1,7 C 2,3 C 8,6 km/h (2 Bft)
14/01/2012 18:00 3,0 C 70 % 1019,9 hPa 0,0 mm 3,2 km/h (1 Bft) E-NE 67 0 min 0 W/m -1,9 C 3,0 C 4,0 km/h (1 Bft)
14/01/2012 18:10 2,8 C 71 % 1019,9 hPa 0,0 mm 3,2 km/h (1 Bft) NE 45 0 min 0 W/m -1,9 C 2,8 C 4,0 km/h (1 Bft)
14/01/2012 18:20 2,4 C 72 % 1019,9 hPa 0,0 mm 2,9 km/h (1 Bft) NE 45 0 min 0 W/m -2,1 C 2,4 C 6,5 km/h (2 Bft)
14/01/2012 18:30 2,1 C 74 % 1019,9 hPa 0,0 mm 1,8 km/h (1 Bft) NE 45 0 min 0 W/m -2,0 C 2,1 C 3,6 km/h (1 Bft)
14/01/2012 18:40 1,8 C 76 % 1019,7 hPa 0,0 mm 2,9 km/h (1 Bft) NE 45 0 min 0 W/m -2,0 C 1,8 C 4,3 km/h (1 Bft)
14/01/2012 18:50 1,5 C 78 % 1019,8 hPa 0,0 mm 2,5 km/h (1 Bft) NE 45 0 min 0 W/m -1,9 C 1,5 C 4,0 km/h (1 Bft)
14/01/2012 19:00 1,2 C 79 % 1019,7 hPa 0,0 mm 3,6 km/h (1 Bft) NE 45 0 min 0 W/m -2,0 C 1,2 C 4,7 km/h (1 Bft)
14/01/2012 19:10 0,9 C 80 % 1019,8 hPa 0,0 mm 4,0 km/h (1 Bft) NE 45 0 min 0 W/m -2,2 C 0,9 C 7,6 km/h (2 Bft)
14/01/2012 19:20 0,8 C 81 % 1019,7 hPa 0,0 mm 5,0 km/h (1 Bft) NE 45 0 min 0 W/m -2,1 C -0,7 C 8,6 km/h (2 Bft)
14/01/2012 19:30 0,6 C 82 % 1019,8 hPa 0,0 mm 2,9 km/h (1 Bft) NE 45 0 min 0 W/m -2,1 C 0,6 C 2,9 km/h (1 Bft)
14/01/2012 19:40 0,5 C 83 % 1019,7 hPa 0,0 mm 1,8 km/h (1 Bft) NE 45 0 min 0 W/m -2,0 C 0,5 C 3,6 km/h (1 Bft)
14/01/2012 19:50 0,3 C 84 % 1019,7 hPa 0,0 mm 3,6 km/h (1 Bft) N-NE 22 0 min 0 W/m -2,1 C 0,3 C 6,1 km/h (2 Bft)
14/01/2012 20:00 0,2 C 84 % 1019,7 hPa 0,0 mm 3,2 km/h (1 Bft) N-NE 22 0 min 0 W/m -2,2 C 0,2 C 4,7 km/h (1 Bft)
14/01/2012 20:10 0,1 C 84 % 1019,7 hPa 0,0 mm 3,6 km/h (1 Bft) NE 45 0 min 0 W/m -2,3 C 0,1 C 6,5 km/h (2 Bft)
14/01/2012 20:20 -0,1 C 85 % 1019,7 hPa 0,0 mm 4,3 km/h (1 Bft) NE 45 0 min 0 W/m -2,3 C -0,1 C 4,3 km/h (1 Bft)
14/01/2012 20:30 -0,2 C 85 % 1019,6 hPa 0,0 mm 2,9 km/h (1 Bft) E-NE 67 0 min 0 W/m -2,4 C -0,2 C 6,5 km/h (2 Bft)
14/01/2012 20:40 -0,2 C 86 % 1019,7 hPa 0,0 mm 0,7 km/h (0 Bft) NE 45 0 min 0 W/m -2,3 C -0,2 C 3,6 km/h (1 Bft)
14/01/2012 20:50 -0,4 C 86 % 1019,6 hPa 0,0 mm 4,7 km/h (1 Bft) NE 45 0 min 0 W/m -2,4 C -1,9 C 4,7 km/h (1 Bft)
14/01/2012 21:00 -0,4 C 87 % 1019,4 hPa 0,0 mm 2,2 km/h (1 Bft) NE 45 0 min 0 W/m -2,3 C -0,4 C 2,2 km/h (1 Bft)
14/01/2012 21:10 -0,5 C 87 % 1019,4 hPa 0,0 mm 1,8 km/h (1 Bft) NE 45 0 min 0 W/m -2,4 C -0,5 C 4,3 km/h (1 Bft)
14/01/2012 21:20 -0,5 C 87 % 1019,4 hPa 0,0 mm 1,1 km/h (1 Bft) NE 45 0 min 0 W/m -2,4 C -0,5 C 4,0 km/h (1 Bft)
14/01/2012 21:30 -0,6 C 87 % 1019,4 hPa 0,0 mm 1,1 km/h (1 Bft) N 360 0 min 0 W/m -2,5 C -0,6 C 1,1 km/h (1 Bft)
14/01/2012 21:40 -0,7 C 87 % 1019,3 hPa 0,0 mm 0,4 km/h (0 Bft) NE 45 0 min 0 W/m -2,6 C -0,7 C 3,2 km/h (1 Bft)
14/01/2012 21:50 -0,8 C 87 % 1019,3 hPa 0,0 mm 1,1 km/h (1 Bft) NE 45 0 min 0 W/m -2,7 C -0,8 C 4,0 km/h (1 Bft)
14/01/2012 22:00 -0,8 C 87 % 1019,3 hPa 0,0 mm 2,5 km/h (1 Bft) NE 45 0 min 0 W/m -2,7 C -0,8 C 3,2 km/h (1 Bft)
14/01/2012 22:10 -0,9 C 87 % 1019,3 hPa 0,0 mm 0,0 km/h (0 Bft) NE 45 0 min 0 W/m -2,8 C -0,9 C 0,0 km/h (0 Bft)
14/01/2012 22:20 -1,1 C 87 % 1019,3 hPa 0,0 mm 0,7 km/h (0 Bft) NE 45 0 min 0 W/m -3,0 C -1,1 C 3,2 km/h (1 Bft)
14/01/2012 22:30 -1,1 C 87 % 1019,3 hPa 0,0 mm 0,0 km/h (0 Bft) E-NE 67 0 min 0 W/m -3,0 C -1,1 C 0,0 km/h (0 Bft)
14/01/2012 22:40 -1,2 C 87 % 1019,2 hPa 0,0 mm 0,0 km/h (0 Bft) NE 45 0 min 0 W/m -3,1 C -1,2 C 0,0 km/h (0 Bft)
14/01/2012 22:50 -1,5 C 87 % 1019,3 hPa 0,0 mm 0,0 km/h (0 Bft) NE 45 0 min 0 W/m -3,4 C -1,5 C 0,0 km/h (0 Bft)
14/01/2012 23:00 -1,8 C 87 % 1019,1 hPa 0,0 mm 0,0 km/h (0 Bft) NE 45 0 min 0 W/m -3,7 C -1,8 C 0,0 km/h (0 Bft)
14/01/2012 23:10 -2,1 C 87 % 1018,9 hPa 0,0 mm 0,0 km/h (0 Bft) NE 45 0 min 0 W/m -4,0 C -2,1 C 0,0 km/h (0 Bft)
14/01/2012 23:20 -2,2 C 87 % 1018,9 hPa 0,0 mm 0,0 km/h (0 Bft) NE 45 0 min 0 W/m -4,1 C -2,2 C 0,0 km/h (0 Bft)
14/01/2012 23:30 -2,3 C 87 % 1018,8 hPa 0,0 mm 0,0 km/h (0 Bft) NE 45 0 min 0 W/m -4,2 C -2,3 C 0,0 km/h (0 Bft)
14/01/2012 23:40 -2,5 C 88 % 1019,0 hPa 0,0 mm 0,0 km/h (0 Bft) NE 45 0 min 0 W/m -4,2 C -2,5 C 0,0 km/h (0 Bft)
14/01/2012 23:50 -2,6 C 88 % 1019,0 hPa 0,0 mm 0,0 km/h (0 Bft) NE 45 0 min 0 W/m -4,3 C -2,6 C 0,0 km/h (0 Bft)
_ Min-Heure 23:50 15:20 23:30 - 23:50 - - - - 23:50 06:40 23:50
Minimum _ -2,6 C 59 % 1018,8 hPa - 0,0 km/h (0 Bft) - - - - -4,3 C -2,7 C 0,0 km/h (0 Bft)
_ Max-Heure 14:40 09:50 00:10 23:50 13:00 - - 17:20 23:50 12:30 14:30 12:40
Maximum _ 7,9 C 95 % 1025,7 hPa 0,0 mm 13,3 km/h
N-NE (3 Bft)
- - 2 min 0 W/m 2,5 C 7,8 C 17,6 km/h
E-NE (3 Bft)
Moyenne _ 1,8 C 83 % 1021,9 hPa #0,0 mm 3,7 km/h (1 Bft) NE - #1:44 h 0 W/m -0,9 C 1,3 C 6,0 km/h (2 Bft)
Saint Bonnet de Bellac- Haute Vienne - France